^^
Datos históricos de la estación: Murcia-Puente Tocinos
Diario Informe para Julio 29, 2019 Unidades:  Métrico    Inglés   Ambas
Diario Semanal Mensual Anual Configurable
  Máximo: Mínimo: Media:
Temperatura: 33.2 °C 23.2 °C 27.7 °C
Punto de rocio: 21.0 °C 14.7 °C 18.3 °C
Humedad: 84% 34% 60%
Velocidad viento: 18.0km/h 0.0km/h 9km/h
Racha viento: 29.6km/h - -
Viento- - ESE
Presión: 1009.8 hPa 1007.2 hPa -
Precipitación: 0.0 mm    
Historical Graphs
 
 
Tabla de datos para Julio 29, 2019
Hora Temperatura Punto de rocio Presión Viento Velocidad viento Racha viento Humedad Intensidad lluvia(por hora) Nubes
00:04 24.8 °C 20.5 °C 1009.1 hPa NNE 13.0 km/h 16.7 km/h 77% 0.0 mm CLR
00:09 24.7 °C 20.6 °C 1009.1 hPa NNE 12.2 km/h 19.0 km/h 78% 0.0 mm CLR
00:14 24.7 °C 20.6 °C 1009.1 hPa ENE 12.2 km/h 18.5 km/h 78% 0.0 mm CLR
00:19 24.6 °C 20.7 °C 1009.1 hPa NE 11.1 km/h 14.8 km/h 79% 0.0 mm CLR
00:24 24.6 °C 20.7 °C 1009.1 hPa NNE 11.1 km/h 19.8 km/h 79% 0.0 mm CLR
00:29 24.5 °C 20.6 °C 1009.1 hPa NE 12.2 km/h 19.0 km/h 79% 0.0 mm CLR
00:34 24.5 °C 20.8 °C 1009.1 hPa NNE 12.2 km/h 16.1 km/h 80% 0.0 mm CLR
00:39 24.4 °C 20.7 °C 1009.1 hPa NNE 11.9 km/h 14.8 km/h 80% 0.0 mm CLR
00:44 24.4 °C 20.7 °C 1009.1 hPa NE 11.9 km/h 13.0 km/h 80% 0.0 mm CLR
00:49 24.4 °C 20.7 °C 1009.1 hPa NE 10.0 km/h 14.8 km/h 80% 0.0 mm CLR
00:54 24.4 °C 20.7 °C 1009.1 hPa NNE 10.0 km/h 14.8 km/h 80% 0.0 mm CLR
00:59 24.3 °C 20.8 °C 1009.1 hPa NE 10.3 km/h 18.5 km/h 81% 0.0 mm CLR
01:04 24.3 °C 20.8 °C 1009.1 hPa NE 10.3 km/h 18.5 km/h 81% 0.0 mm CLR
01:09 24.3 °C 20.8 °C 1009.1 hPa NNE 11.1 km/h 18.3 km/h 81% 0.0 mm CLR
01:14 24.2 °C 20.9 °C 1009.1 hPa NNE 11.1 km/h 13.0 km/h 82% 0.0 mm CLR
01:19 24.2 °C 20.9 °C 1009.2 hPa NNE 10.3 km/h 14.8 km/h 82% 0.0 mm CLR
01:24 24.1 °C 20.8 °C 1009.2 hPa NE 10.3 km/h 14.8 km/h 82% 0.0 mm CLR
01:29 24.1 °C 20.8 °C 1009.2 hPa NE 10.3 km/h 13.7 km/h 82% 0.0 mm CLR
01:34 24.1 °C 20.8 °C 1008.9 hPa NE 10.3 km/h 11.1 km/h 82% 0.0 mm CLR
01:39 24.1 °C 20.8 °C 1008.9 hPa NNE 8.7 km/h 13.0 km/h 82% 0.0 mm CLR
01:44 24.0 °C 20.7 °C 1008.9 hPa NE 8.7 km/h 11.1 km/h 82% 0.0 mm CLR
01:49 23.9 °C 20.6 °C 1009.0 hPa ENE 8.7 km/h 16.1 km/h 82% 0.0 mm CLR
01:54 23.8 °C 20.7 °C 1009.0 hPa NE 8.7 km/h 16.7 km/h 83% 0.0 mm CLR
01:59 23.8 °C 20.7 °C 1009.0 hPa NNE 10.3 km/h 13.0 km/h 83% 0.0 mm CLR
02:04 23.7 °C 20.7 °C 1008.9 hPa NE 10.3 km/h 13.0 km/h 83% 0.0 mm CLR
02:09 23.7 °C 20.7 °C 1008.9 hPa ENE 8.7 km/h 9.3 km/h 83% 0.0 mm CLR
02:14 23.7 °C 20.7 °C 1008.9 hPa NNE 8.7 km/h 13.0 km/h 83% 0.0 mm CLR
02:19 23.6 °C 20.6 °C 1008.9 hPa NE 8.7 km/h 13.0 km/h 83% 0.0 mm CLR
02:24 23.6 °C 20.7 °C 1008.9 hPa ENE 8.7 km/h 13.0 km/h 84% 0.0 mm CLR
02:29 23.6 °C 20.7 °C 1008.9 hPa ENE 8.7 km/h 13.0 km/h 84% 0.0 mm CLR
02:34 23.5 °C 20.6 °C 1008.7 hPa NE 8.7 km/h 14.8 km/h 84% 0.0 mm CLR
02:39 23.5 °C 20.6 °C 1008.7 hPa NE 9.5 km/h 13.0 km/h 84% 0.0 mm CLR
02:44 23.4 °C 20.6 °C 1008.7 hPa North 9.5 km/h 13.0 km/h 84% 0.0 mm CLR
02:49 23.4 °C 20.6 °C 1008.7 hPa NE 9.5 km/h 11.1 km/h 84% 0.0 mm CLR
02:54 23.4 °C 20.6 °C 1008.7 hPa NE 9.5 km/h 11.1 km/h 84% 0.0 mm CLR
02:59 23.4 °C 20.6 °C 1008.7 hPa NE 8.4 km/h 9.3 km/h 84% 0.0 mm CLR
03:04 23.4 °C 20.6 °C 1008.7 hPa NNE 8.4 km/h 9.3 km/h 84% 0.0 mm CLR
03:09 23.4 °C 20.6 °C 1008.7 hPa NNE 6.9 km/h 7.4 km/h 84% 0.0 mm CLR
03:14 23.4 °C 20.3 °C 1008.7 hPa NE 6.9 km/h 13.0 km/h 83% 0.0 mm CLR
03:19 23.3 °C 20.2 °C 1008.6 hPa NE 7.6 km/h 11.1 km/h 83% 0.0 mm CLR
03:24 23.3 °C 20.1 °C 1008.6 hPa NE 7.6 km/h 11.1 km/h 82% 0.0 mm CLR
03:29 23.3 °C 20.1 °C 1008.6 hPa ENE 6.9 km/h 9.3 km/h 82% 0.0 mm CLR
03:34 23.3 °C 19.8 °C 1008.6 hPa ENE 6.9 km/h 5.8 km/h 81% 0.0 mm CLR
03:39 23.2 °C 19.6 °C 1008.6 hPa ENE 5.0 km/h 7.4 km/h 80% 0.0 mm CLR
03:44 23.2 °C 19.3 °C 1008.6 hPa ENE 5.0 km/h 9.3 km/h 79% 0.0 mm CLR
03:49 23.2 °C 18.9 °C 1008.7 hPa East 5.0 km/h 7.4 km/h 77% 0.0 mm CLR
03:54 23.3 °C 18.8 °C 1008.7 hPa ENE 5.0 km/h 7.4 km/h 76% 0.0 mm CLR
03:59 23.4 °C 18.5 °C 1008.7 hPa East 5.0 km/h 7.4 km/h 74% 0.0 mm CLR
04:04 23.4 °C 18.3 °C 1008.7 hPa ESE 5.0 km/h 7.4 km/h 73% 0.0 mm CLR
04:09 23.5 °C 18.2 °C 1008.7 hPa ENE 5.0 km/h 5.6 km/h 72% 0.0 mm CLR
04:14 23.5 °C 17.9 °C 1008.7 hPa ESE 5.0 km/h 7.4 km/h 71% 0.0 mm CLR
04:19 23.6 °C 18.1 °C 1008.7 hPa East 5.0 km/h 7.4 km/h 71% 0.0 mm CLR
04:24 23.6 °C 17.8 °C 1008.7 hPa SE 5.0 km/h 6.9 km/h 70% 0.0 mm CLR
04:29 23.6 °C 18.1 °C 1008.7 hPa SE 5.0 km/h 5.6 km/h 71% 0.0 mm CLR
04:34 23.6 °C 18.1 °C 1008.7 hPa SE 5.0 km/h   71% 0.0 mm CLR
04:39 23.6 °C 18.3 °C 1008.7 hPa SSW 2.9 km/h 9.3 km/h 72% 0.0 mm CLR
04:44 23.6 °C 18.3 °C 1008.7 hPa SE 2.9 km/h 7.4 km/h 72% 0.0 mm CLR
04:49 23.6 °C 18.3 °C 1008.6 hPa SSE 5.0 km/h 7.6 km/h 72% 0.0 mm CLR
04:54 23.6 °C 18.5 °C 1008.6 hPa SSE 5.0 km/h 8.4 km/h 73% 0.0 mm CLR
04:59 23.6 °C 18.5 °C 1008.6 hPa SSW 5.0 km/h 9.3 km/h 73% 0.0 mm CLR
05:04 23.6 °C 18.7 °C 1008.6 hPa South 5.0 km/h 7.4 km/h 74% 0.0 mm CLR
05:09 23.6 °C 18.9 °C 1008.6 hPa SW 5.8 km/h 11.1 km/h 75% 0.0 mm CLR
05:14 23.6 °C 19.1 °C 1008.6 hPa SW 5.8 km/h 9.3 km/h 76% 0.0 mm CLR
05:19 23.6 °C 19.1 °C 1008.7 hPa SW 6.4 km/h 9.3 km/h 76% 0.0 mm CLR
05:24 23.6 °C 19.3 °C 1008.7 hPa SSW 6.4 km/h 11.1 km/h 77% 0.0 mm CLR
05:29 23.5 °C 19.2 °C 1008.7 hPa SW 5.8 km/h 7.4 km/h 77% 0.0 mm CLR
05:34 23.4 °C 18.9 °C 1008.7 hPa South 5.8 km/h 7.4 km/h 76% 0.0 mm CLR
05:39 23.4 °C 19.1 °C 1008.7 hPa SW 5.8 km/h 7.4 km/h 77% 0.0 mm CLR
05:44 23.4 °C 19.3 °C 1008.7 hPa SW 5.8 km/h 11.1 km/h 78% 0.0 mm CLR
05:49 23.4 °C 19.3 °C 1008.8 hPa SSW 5.8 km/h 8.7 km/h 78% 0.0 mm CLR
05:54 23.4 °C 19.3 °C 1008.8 hPa WSW 5.8 km/h 9.3 km/h 78% 0.0 mm CLR
05:59 23.4 °C 19.3 °C 1008.8 hPa SW 4.7 km/h 9.3 km/h 78% 0.0 mm CLR
06:04 23.4 °C 19.1 °C 1008.8 hPa SW 4.7 km/h 8.4 km/h 77% 0.0 mm CLR
06:09 23.4 °C 19.1 °C 1008.8 hPa SW 5.8 km/h 7.4 km/h 77% 0.0 mm CLR
06:14 23.4 °C 19.1 °C 1008.8 hPa WSW 5.8 km/h 9.3 km/h 77% 0.0 mm CLR
06:19 23.4 °C 19.1 °C 1008.8 hPa WSW 4.7 km/h 9.3 km/h 77% 0.0 mm CLR
06:24 23.4 °C 19.1 °C 1008.8 hPa WSW 4.7 km/h 7.4 km/h 77% 0.0 mm CLR
06:29 23.4 °C 18.9 °C 1008.8 hPa SW 5.0 km/h 7.4 km/h 76% 0.0 mm CLR
06:34 23.4 °C 18.9 °C 1008.9 hPa SSW 5.0 km/h 11.1 km/h 76% 0.0 mm CLR
06:39 23.4 °C 18.9 °C 1008.9 hPa SW 5.0 km/h 7.4 km/h 76% 0.0 mm CLR
06:44 23.4 °C 18.9 °C 1008.9 hPa WSW 5.0 km/h 6.4 km/h 76% 0.0 mm CLR
06:49 23.4 °C 18.9 °C 1009.1 hPa SW 4.7 km/h 7.4 km/h 76% 0.0 mm CLR
06:54 23.4 °C 18.9 °C 1009.1 hPa SSW 4.7 km/h 7.4 km/h 76% 0.0 mm CLR
06:59 23.4 °C 18.9 °C 1009.1 hPa SW 4.7 km/h 5.8 km/h 76% 0.0 mm CLR
07:04 23.3 °C 19.1 °C 1009.1 hPa South 4.7 km/h 9.3 km/h 77% 0.0 mm CLR
07:09 23.3 °C 19.1 °C 1009.1 hPa SW 6.4 km/h 9.3 km/h 77% 0.0 mm CLR
07:14 23.3 °C 19.1 °C 1009.1 hPa WSW 6.4 km/h 7.4 km/h 77% 0.0 mm CLR
07:19 23.3 °C 19.2 °C 1009.3 hPa SW 6.4 km/h 9.5 km/h 78% 0.0 mm CLR
07:24 23.3 °C 19.2 °C 1009.3 hPa WSW 6.4 km/h 7.4 km/h 78% 0.0 mm CLR
07:29 23.3 °C 19.2 °C 1009.3 hPa WSW 4.7 km/h 5.6 km/h 78% 0.0 mm CLR
07:34 23.4 °C 19.3 °C 1009.4 hPa WSW 4.7 km/h 7.4 km/h 78% 0.0 mm CLR
07:39 23.4 °C 19.3 °C 1009.4 hPa SW 2.9 km/h 7.4 km/h 78% 0.0 mm CLR
07:44 23.4 °C 19.6 °C 1009.4 hPa SW 2.9 km/h 5.6 km/h 79% 0.0 mm CLR
07:49 23.5 °C 19.7 °C 1009.5 hPa WSW 2.9 km/h 4.7 km/h 79% 0.0 mm CLR
07:54 23.5 °C 19.8 °C 1009.5 hPa West 2.9 km/h 3.7 km/h 80% 0.0 mm CLR
07:59 23.6 °C 19.9 °C 1009.5 hPa West 2.9 km/h 7.4 km/h 80% 0.0 mm CLR
08:04 23.6 °C 19.7 °C 1009.6 hPa West 2.9 km/h 3.7 km/h 79% 0.0 mm CLR
08:09 23.7 °C 19.8 °C 1009.6 hPa West 2.9 km/h 3.7 km/h 79% 0.0 mm CLR
08:14 23.9 °C 19.8 °C 1009.6 hPa West 2.9 km/h   78% 0.0 mm CLR
08:19 24.0 °C 19.3 °C 1009.7 hPa Calm   3.7 km/h 75% 0.0 mm CLR
08:24 24.1 °C 19.4 °C 1009.7 hPa Calm   5.6 km/h 75% 0.0 mm CLR
08:29 24.0 °C 19.3 °C 1009.7 hPa NE 2.9 km/h 5.6 km/h 75% 0.0 mm CLR
08:34 24.1 °C 19.4 °C 1009.7 hPa NE 2.9 km/h 3.7 km/h 75% 0.0 mm CLR
08:39 24.2 °C 19.3 °C 1009.7 hPa East 2.9 km/h 7.4 km/h 74% 0.0 mm CLR
08:44 24.3 °C 19.2 °C 1009.7 hPa ESE 2.9 km/h 7.4 km/h 73% 0.0 mm CLR
08:49 24.3 °C 19.2 °C 1009.8 hPa ESE 4.7 km/h 5.6 km/h 73% 0.0 mm CLR
08:54 24.4 °C 19.4 °C 1009.8 hPa ENE 4.7 km/h 5.6 km/h 74% 0.0 mm CLR
08:59 24.7 °C 19.6 °C 1009.8 hPa ENE 2.9 km/h 3.7 km/h 73% 0.0 mm CLR
09:04 24.9 °C 19.7 °C 1009.7 hPa ENE 2.9 km/h 5.6 km/h 73% 0.0 mm CLR
09:09 25.2 °C 20.0 °C 1009.7 hPa SSE 2.9 km/h 7.4 km/h 73% 0.0 mm CLR
09:14 25.1 °C 20.1 °C 1009.7 hPa South 2.9 km/h 7.6 km/h 74% 0.0 mm CLR
09:19 24.9 °C 20.2 °C 1009.8 hPa ESE 5.8 km/h 7.4 km/h 75% 0.0 mm CLR
09:24 25.0 °C 20.3 °C 1009.8 hPa SSE 5.8 km/h 5.6 km/h 75% 0.0 mm CLR
09:29 25.2 °C 20.2 °C 1009.8 hPa SSE 2.9 km/h 3.7 km/h 74% 0.0 mm CLR
09:34 25.4 °C 20.2 °C 1009.8 hPa East 2.9 km/h 7.4 km/h 73% 0.0 mm CLR
09:39 25.6 °C 20.2 °C 1009.8 hPa SE 3.2 km/h 3.7 km/h 72% 0.0 mm CLR
09:44 25.7 °C 20.3 °C 1009.8 hPa NW 3.2 km/h 7.4 km/h 72% 0.0 mm CLR
09:49 25.8 °C 20.2 °C 1009.8 hPa West 3.2 km/h 7.4 km/h 71% 0.0 mm CLR
09:54 25.8 °C 20.2 °C 1009.8 hPa SW 3.2 km/h   71% 0.0 mm CLR
09:59 25.8 °C 20.2 °C 1009.8 hPa South 2.9 km/h 5.8 km/h 71% 0.0 mm CLR
10:04 25.8 °C 19.7 °C 1009.8 hPa West 2.9 km/h 3.7 km/h 69% 0.0 mm CLR
10:09 26.0 °C 19.9 °C 1009.8 hPa NNW 3.9 km/h 9.3 km/h 69% 0.0 mm CLR
10:14 26.1 °C 20.2 °C 1009.8 hPa NW 3.9 km/h 7.6 km/h 70% 0.0 mm CLR
10:19 26.2 °C 19.8 °C 1009.8 hPa WNW 3.9 km/h 7.4 km/h 68% 0.0 mm CLR
10:24 26.4 °C 20.0 °C 1009.8 hPa NW 3.9 km/h   68% 0.0 mm CLR
10:29 26.8 °C 19.9 °C 1009.8 hPa NNE 2.9 km/h 7.4 km/h 66% 0.0 mm CLR
10:34 26.9 °C 19.8 °C 1009.7 hPa WNW 2.9 km/h 5.6 km/h 65% 0.0 mm CLR
10:39 27.2 °C 19.8 °C 1009.7 hPa North 3.9 km/h 7.4 km/h 64% 0.0 mm CLR
10:44 27.4 °C 19.5 °C 1009.7 hPa North 3.9 km/h 7.4 km/h 62% 0.0 mm CLR
10:49 27.6 °C 19.4 °C 1009.7 hPa West 3.9 km/h 5.6 km/h 61% 0.0 mm CLR
10:54 27.8 °C 19.6 °C 1009.7 hPa NNW 3.9 km/h 7.4 km/h 61% 0.0 mm CLR
10:59 28.0 °C 19.2 °C 1009.7 hPa ENE 4.7 km/h 5.6 km/h 59% 0.0 mm CLR
11:04 28.1 °C 19.3 °C 1009.7 hPa East 4.7 km/h 3.7 km/h 59% 0.0 mm CLR
11:09 28.3 °C 19.2 °C 1009.7 hPa NW 2.9 km/h 7.4 km/h 58% 0.0 mm CLR
11:14 28.3 °C 19.2 °C 1009.7 hPa East 2.9 km/h 7.4 km/h 58% 0.0 mm CLR
11:19 28.5 °C 19.2 °C 1009.6 hPa ENE 3.9 km/h 13.0 km/h 57% 0.0 mm CLR
11:24 28.4 °C 19.1 °C 1009.6 hPa NW 3.9 km/h 7.4 km/h 57% 0.0 mm CLR
11:29 28.3 °C 19.2 °C 1009.6 hPa North 5.8 km/h 10.0 km/h 58% 0.0 mm CLR
11:34 28.3 °C 19.2 °C 1009.6 hPa WSW 5.8 km/h 4.7 km/h 58% 0.0 mm CLR
11:39 28.6 °C 19.2 °C 1009.6 hPa SW 4.7 km/h 9.3 km/h 57% 0.0 mm CLR
11:44 28.7 °C 19.1 °C 1009.6 hPa ENE 4.7 km/h 13.0 km/h 56% 0.0 mm CLR
11:49 28.8 °C 19.2 °C 1009.5 hPa East 5.8 km/h 9.3 km/h 56% 0.0 mm CLR
11:54 29.2 °C 19.2 °C 1009.5 hPa West 5.8 km/h   55% 0.0 mm CLR
11:59 29.6 °C 19.6 °C 1009.5 hPa NE 2.9 km/h 9.3 km/h 55% 0.0 mm CLR
12:04 29.7 °C 19.4 °C 1009.5 hPa NE 2.9 km/h 7.4 km/h 54% 0.0 mm CLR
12:09 29.7 °C 19.1 °C 1009.5 hPa NE 6.9 km/h 11.1 km/h 53% 0.0 mm CLR
12:14 29.6 °C 19.0 °C 1009.5 hPa ENE 6.9 km/h 11.1 km/h 53% 0.0 mm CLR
12:19 29.7 °C 19.1 °C 1009.4 hPa SE 6.9 km/h 7.4 km/h 53% 0.0 mm CLR
12:24 29.9 °C 18.7 °C 1009.4 hPa ESE 6.9 km/h 14.8 km/h 51% 0.0 mm CLR
12:29 30.1 °C 18.6 °C 1009.4 hPa NE 6.4 km/h 12.2 km/h 50% 0.0 mm CLR
12:34 30.1 °C 18.6 °C 1009.3 hPa NNE 6.4 km/h 9.3 km/h 50% 0.0 mm CLR
12:39 30.2 °C 18.0 °C 1009.3 hPa NNW 6.9 km/h 9.3 km/h 48% 0.0 mm CLR
12:44 30.3 °C 18.1 °C 1009.3 hPa NNE 6.9 km/h 9.3 km/h 48% 0.0 mm CLR
12:49 30.6 °C 18.3 °C 1009.2 hPa ENE 6.4 km/h 13.0 km/h 48% 0.0 mm CLR
12:54 30.8 °C 17.5 °C 1009.2 hPa East 6.4 km/h 8.4 km/h 45% 0.0 mm CLR
12:59 31.0 °C 17.7 °C 1009.2 hPa East 6.9 km/h 9.3 km/h 45% 0.0 mm CLR
13:04 31.2 °C 17.5 °C 1009.1 hPa WNW 6.9 km/h 3.9 km/h 44% 0.0 mm CLR
13:09 31.6 °C 17.8 °C 1009.1 hPa NNE 5.0 km/h 7.4 km/h 44% 0.0 mm CLR
13:14 31.9 °C 17.4 °C 1009.1 hPa East 5.0 km/h 11.9 km/h 42% 0.0 mm CLR
13:19 32.0 °C 17.5 °C 1008.9 hPa East 6.4 km/h 6.9 km/h 42% 0.0 mm CLR
13:24 32.1 °C 16.8 °C 1008.9 hPa East 6.4 km/h 9.3 km/h 40% 0.0 mm CLR
13:29 32.2 °C 16.9 °C 1008.9 hPa NNW 5.8 km/h 7.4 km/h 40% 0.0 mm CLR
13:34 32.4 °C 16.3 °C 1008.7 hPa ENE 5.8 km/h 16.7 km/h 38% 0.0 mm CLR
13:39 32.5 °C 15.9 °C 1008.7 hPa NNE 6.4 km/h 10.3 km/h 37% 0.0 mm CLR
13:44 32.6 °C 16.0 °C 1008.7 hPa South 6.4 km/h 7.6 km/h 37% 0.0 mm CLR
13:49 32.7 °C 15.7 °C 1008.5 hPa SE 6.4 km/h 16.7 km/h 36% 0.0 mm CLR
13:54 32.6 °C 15.6 °C 1008.5 hPa ENE 6.4 km/h 22.2 km/h 36% 0.0 mm CLR
13:59 32.5 °C 15.1 °C 1008.5 hPa SE 11.9 km/h 20.4 km/h 35% 0.0 mm CLR
14:04 32.3 °C 15.3 °C 1008.5 hPa WSW 11.9 km/h 7.4 km/h 36% 0.0 mm CLR
14:09 32.7 °C 15.2 °C 1008.5 hPa ENE 8.4 km/h 7.4 km/h 35% 0.0 mm CLR
14:14 32.9 °C 14.9 °C 1008.5 hPa ESE 8.4 km/h 18.5 km/h 34% 0.0 mm CLR
14:19 32.8 °C 15.3 °C 1008.4 hPa East 11.1 km/h 13.0 km/h 35% 0.0 mm CLR
14:24 32.6 °C 15.2 °C 1008.4 hPa South 11.1 km/h 14.0 km/h 35% 0.0 mm CLR
14:29 32.6 °C 15.6 °C 1008.4 hPa South 8.7 km/h 13.0 km/h 36% 0.0 mm CLR
14:34 32.9 °C 16.3 °C 1008.2 hPa SE 8.7 km/h 13.0 km/h 37% 0.0 mm CLR
14:39 33.0 °C 16.8 °C 1008.2 hPa SE 11.1 km/h 20.9 km/h 38% 0.0 mm CLR
14:44 32.9 °C 16.7 °C 1008.2 hPa SE 11.1 km/h 22.2 km/h 38% 0.0 mm CLR
14:49 32.9 °C 17.5 °C 1008.1 hPa ESE 14.8 km/h 25.1 km/h 40% 0.0 mm CLR
14:54 32.9 °C 17.9 °C 1008.1 hPa ESE 14.8 km/h 22.2 km/h 41% 0.0 mm CLR
14:59 32.8 °C 17.4 °C 1008.1 hPa East 14.8 km/h 14.8 km/h 40% 0.0 mm CLR
15:04 32.9 °C 17.5 °C 1008.0 hPa SE 14.8 km/h 29.6 km/h 40% 0.0 mm CLR
15:09 32.9 °C 16.7 °C 1008.0 hPa ESE 14.0 km/h 20.4 km/h 38% 0.0 mm CLR
15:14 32.9 °C 16.7 °C 1008.0 hPa East 14.0 km/h 17.2 km/h 38% 0.0 mm CLR
15:19 32.7 °C 16.5 °C 1007.9 hPa East 11.1 km/h 22.2 km/h 38% 0.0 mm CLR
15:24 32.8 °C 17.0 °C 1007.9 hPa ESE 11.1 km/h 22.0 km/h 39% 0.0 mm CLR
15:29 32.8 °C 16.6 °C 1007.9 hPa East 14.8 km/h 13.0 km/h 38% 0.0 mm CLR
15:34 33.2 °C 16.6 °C 1007.8 hPa SE 14.8 km/h 27.8 km/h 37% 0.0 mm CLR
15:39 33.1 °C 16.4 °C 1007.8 hPa East 14.0 km/h 18.5 km/h 37% 0.0 mm CLR
15:44 32.9 °C 16.7 °C 1007.8 hPa East 14.0 km/h 24.1 km/h 38% 0.0 mm CLR
15:49 32.8 °C 16.2 °C 1007.8 hPa ESE 13.7 km/h 24.1 km/h 37% 0.0 mm CLR
15:54 32.8 °C 16.2 °C 1007.8 hPa ESE 13.7 km/h 19.0 km/h 37% 0.0 mm CLR
15:59 33.0 °C 16.4 °C 1007.8 hPa SE 14.8 km/h 22.2 km/h 37% 0.0 mm CLR
16:04 32.8 °C 16.6 °C 1007.8 hPa ENE 14.8 km/h 29.6 km/h 38% 0.0 mm CLR
16:09 32.8 °C 16.6 °C 1007.8 hPa SE 18.0 km/h 25.6 km/h 38% 0.0 mm CLR
16:14 32.8 °C 16.6 °C 1007.8 hPa ESE 18.0 km/h 29.6 km/h 38% 0.0 mm CLR
16:19 32.7 °C 16.9 °C 1007.7 hPa ESE 18.0 km/h 25.9 km/h 39% 0.0 mm CLR
16:24 32.7 °C 16.5 °C 1007.7 hPa SE 18.0 km/h 24.1 km/h 38% 0.0 mm CLR
16:29 32.7 °C 16.9 °C 1007.7 hPa ESE 16.4 km/h 22.2 km/h 39% 0.0 mm CLR
16:34 33.1 °C 16.9 °C 1007.6 hPa ESE 16.4 km/h 24.1 km/h 38% 0.0 mm CLR
16:39 32.9 °C 16.7 °C 1007.6 hPa ESE 15.6 km/h 29.6 km/h 38% 0.0 mm CLR
16:44 32.8 °C 16.6 °C 1007.6 hPa SE 15.6 km/h 24.1 km/h 38% 0.0 mm CLR
16:49 32.9 °C 17.1 °C 1007.5 hPa ESE 16.1 km/h 16.7 km/h 39% 0.0 mm CLR
16:54 33.2 °C 16.9 °C 1007.5 hPa SSE 16.1 km/h 20.4 km/h 38% 0.0 mm CLR
16:59 33.0 °C 16.8 °C 1007.5 hPa ESE 14.0 km/h 27.8 km/h 38% 0.0 mm CLR
17:04 32.7 °C 16.5 °C 1007.6 hPa SE 14.0 km/h 24.1 km/h 38% 0.0 mm CLR
17:09 32.7 °C 16.1 °C 1007.6 hPa ESE 17.2 km/h 24.1 km/h 37% 0.0 mm CLR
17:14 32.7 °C 16.1 °C 1007.6 hPa SE 17.2 km/h 19.8 km/h 37% 0.0 mm CLR
17:19 32.7 °C 16.1 °C 1007.4 hPa SE 15.6 km/h 25.6 km/h 37% 0.0 mm CLR
17:24 32.8 °C 16.2 °C 1007.4 hPa SE 15.6 km/h 22.5 km/h 37% 0.0 mm CLR
17:29 32.7 °C 16.1 °C 1007.4 hPa ESE 16.1 km/h 25.9 km/h 37% 0.0 mm CLR
17:34 32.6 °C 16.0 °C 1007.4 hPa SE 16.1 km/h 24.1 km/h 37% 0.0 mm CLR
17:39 32.6 °C 16.4 °C 1007.4 hPa SE 16.4 km/h 22.2 km/h 38% 0.0 mm CLR
17:44 32.6 °C 16.0 °C 1007.4 hPa SE 16.4 km/h 24.1 km/h 37% 0.0 mm CLR
17:49 32.4 °C 16.3 °C 1007.4 hPa ESE 17.2 km/h 20.4 km/h 38% 0.0 mm CLR
17:54 32.6 °C 16.0 °C 1007.4 hPa SE 17.2 km/h 24.1 km/h 37% 0.0 mm CLR
17:59 32.3 °C 16.2 °C 1007.4 hPa SE 16.4 km/h 18.5 km/h 38% 0.0 mm CLR
18:04 32.6 °C 16.0 °C 1007.3 hPa SE 16.4 km/h 22.2 km/h 37% 0.0 mm CLR
18:09 32.5 °C 16.3 °C 1007.3 hPa SE 15.6 km/h 24.1 km/h 38% 0.0 mm CLR
18:14 32.3 °C 16.6 °C 1007.3 hPa SE 15.6 km/h 24.1 km/h 39% 0.0 mm CLR
18:19 32.2 °C 16.1 °C 1007.3 hPa SE 15.6 km/h 25.9 km/h 38% 0.0 mm CLR
18:24 32.2 °C 16.1 °C 1007.3 hPa ESE 15.6 km/h 23.3 km/h 38% 0.0 mm CLR
18:29 32.3 °C 16.2 °C 1007.3 hPa SSE 14.0 km/h 24.1 km/h 38% 0.0 mm CLR
18:34 32.2 °C 16.1 °C 1007.2 hPa SE 14.0 km/h 20.4 km/h 38% 0.0 mm CLR
18:39 32.3 °C 16.2 °C 1007.2 hPa SE 15.6 km/h 22.0 km/h 38% 0.0 mm CLR
18:44 32.3 °C 16.2 °C 1007.2 hPa SE 15.6 km/h 20.4 km/h 38% 0.0 mm CLR
18:49 32.3 °C 16.2 °C 1007.3 hPa ESE 13.7 km/h 23.3 km/h 38% 0.0 mm CLR
18:54 32.2 °C 16.1 °C 1007.3 hPa SSE 13.7 km/h 18.5 km/h 38% 0.0 mm CLR
18:59 32.1 °C 16.0 °C 1007.3 hPa SE 14.8 km/h 18.5 km/h 38% 0.0 mm CLR
19:04 32.1 °C 16.4 °C 1007.3 hPa ESE 14.8 km/h 20.4 km/h 39% 0.0 mm CLR
19:09 32.1 °C 16.4 °C 1007.3 hPa SE 14.0 km/h 20.4 km/h 39% 0.0 mm CLR
19:14 32.1 °C 16.4 °C 1007.3 hPa ESE 14.0 km/h 18.5 km/h 39% 0.0 mm CLR
19:19 31.9 °C 16.2 °C 1007.2 hPa East 14.0 km/h 18.5 km/h 39% 0.0 mm CLR
19:24 31.9 °C 15.8 °C 1007.2 hPa ESE 14.0 km/h 16.7 km/h 38% 0.0 mm CLR
19:29 31.9 °C 15.8 °C 1007.2 hPa SE 11.9 km/h 22.2 km/h 38% 0.0 mm CLR
19:34 31.9 °C 15.8 °C 1007.2 hPa SE 11.9 km/h 18.5 km/h 38% 0.0 mm CLR
19:39 31.8 °C 16.1 °C 1007.2 hPa ESE 13.0 km/h 22.2 km/h 39% 0.0 mm CLR
19:44 31.7 °C 15.6 °C 1007.2 hPa ESE 13.0 km/h 20.4 km/h 38% 0.0 mm CLR
19:49 31.6 °C 15.9 °C 1007.3 hPa East 14.0 km/h 18.5 km/h 39% 0.0 mm CLR
19:54 31.6 °C 15.9 °C 1007.3 hPa ESE 14.0 km/h 14.8 km/h 39% 0.0 mm CLR
19:59 31.6 °C 15.6 °C 1007.3 hPa SE 13.0 km/h 22.2 km/h 38% 0.0 mm CLR
20:04 31.6 °C 15.6 °C 1007.3 hPa SE 13.0 km/h 14.8 km/h 38% 0.0 mm CLR
20:09 31.5 °C 15.9 °C 1007.3 hPa East 11.9 km/h 18.0 km/h 39% 0.0 mm CLR
20:14 31.4 °C 15.8 °C 1007.3 hPa ESE 11.9 km/h 13.0 km/h 39% 0.0 mm CLR
20:19 31.3 °C 15.3 °C 1007.4 hPa ESE 12.2 km/h 14.8 km/h 38% 0.0 mm CLR
20:24 31.3 °C 15.3 °C 1007.4 hPa ESE 12.2 km/h 13.0 km/h 38% 0.0 mm CLR
20:29 31.3 °C 15.3 °C 1007.4 hPa SE 11.1 km/h 14.8 km/h 38% 0.0 mm CLR
20:34 31.2 °C 15.2 °C 1007.5 hPa ESE 11.1 km/h 16.7 km/h 38% 0.0 mm CLR
20:39 31.0 °C 15.0 °C 1007.5 hPa ESE 10.3 km/h 14.8 km/h 38% 0.0 mm CLR
20:44 31.0 °C 15.0 °C 1007.5 hPa ESE 10.3 km/h 14.8 km/h 38% 0.0 mm CLR
20:49 30.8 °C 15.2 °C 1007.6 hPa ESE 11.1 km/h 14.8 km/h 39% 0.0 mm CLR
20:54 30.7 °C 15.2 °C 1007.6 hPa East 11.1 km/h 16.7 km/h 39% 0.0 mm CLR
20:59 30.6 °C 15.1 °C 1007.6 hPa ESE 10.3 km/h 16.7 km/h 39% 0.0 mm CLR
21:04 30.5 °C 15.4 °C 1007.8 hPa ESE 10.3 km/h 13.0 km/h 40% 0.0 mm CLR
21:09 30.3 °C 15.2 °C 1007.8 hPa ESE 9.5 km/h 13.0 km/h 40% 0.0 mm CLR
21:14 30.2 °C 15.1 °C 1007.8 hPa ESE 9.5 km/h 14.8 km/h 40% 0.0 mm CLR
21:19 30.1 °C 15.0 °C 1007.9 hPa ESE 11.9 km/h 14.8 km/h 40% 0.0 mm CLR
21:24 29.9 °C 14.8 °C 1007.9 hPa ESE 11.9 km/h 14.8 km/h 40% 0.0 mm CLR
21:29 29.8 °C 14.7 °C 1007.9 hPa ESE 10.3 km/h 18.5 km/h 40% 0.0 mm CLR
21:34 29.7 °C 15.1 °C 1008.1 hPa East 10.3 km/h 13.0 km/h 41% 0.0 mm CLR
21:39 29.7 °C 15.1 °C 1008.1 hPa East 11.9 km/h 16.7 km/h 41% 0.0 mm CLR
21:44 29.6 °C 15.3 °C 1008.1 hPa East 11.9 km/h 11.1 km/h 42% 0.0 mm CLR
21:49 29.4 °C 15.2 °C 1008.2 hPa NE 8.4 km/h 9.3 km/h 42% 0.0 mm CLR
21:54 29.3 °C 15.4 °C 1008.2 hPa NE 8.4 km/h 7.4 km/h 43% 0.0 mm CLR
21:59 29.2 °C 16.1 °C 1008.2 hPa ENE 6.9 km/h 13.0 km/h 45% 0.0 mm CLR
22:04 28.8 °C 17.0 °C 1008.6 hPa NNE 6.9 km/h 14.0 km/h 49% 0.0 mm CLR
22:09 28.5 °C 18.0 °C 1008.6 hPa NE 10.0 km/h 13.0 km/h 53% 0.0 mm CLR
22:14 28.3 °C 18.7 °C 1008.6 hPa NNE 10.0 km/h 16.1 km/h 56% 0.0 mm CLR
22:19 28.1 °C 18.8 °C 1008.8 hPa NNE 10.0 km/h 13.7 km/h 57% 0.0 mm CLR
22:24 27.8 °C 19.6 °C 1008.8 hPa NNE 10.0 km/h 13.0 km/h 61% 0.0 mm CLR
22:29 27.6 °C 19.7 °C 1008.8 hPa ENE 10.3 km/h 13.0 km/h 62% 0.0 mm CLR
22:34 27.3 °C 20.2 °C 1009.0 hPa NNE 10.3 km/h 16.4 km/h 65% 0.0 mm CLR
22:39 27.0 °C 20.3 °C 1009.0 hPa NNE 12.2 km/h 16.7 km/h 67% 0.0 mm CLR
22:44 26.7 °C 20.6 °C 1009.0 hPa NNE 12.2 km/h 16.4 km/h 69% 0.0 mm CLR
22:49 26.5 °C 20.6 °C 1009.2 hPa NNE 12.2 km/h 18.5 km/h 70% 0.0 mm CLR
22:54 26.3 °C 20.6 °C 1009.2 hPa NNE 12.2 km/h 20.4 km/h 71% 0.0 mm CLR
22:59 26.2 °C 20.8 °C 1009.2 hPa NE 13.0 km/h 22.2 km/h 72% 0.0 mm CLR
23:04 26.1 °C 20.7 °C 1009.4 hPa NE 13.0 km/h 18.5 km/h 72% 0.0 mm CLR
23:09 26.0 °C 20.8 °C 1009.4 hPa NE 13.0 km/h 16.7 km/h 73% 0.0 mm CLR
23:14 25.9 °C 20.7 °C 1009.4 hPa NNE 13.0 km/h 18.5 km/h 73% 0.0 mm CLR
23:19 25.8 °C 20.8 °C 1009.5 hPa North 13.0 km/h 18.5 km/h 74% 0.0 mm CLR
23:24 25.8 °C 20.8 °C 1009.5 hPa NE 13.0 km/h 19.0 km/h 74% 0.0 mm CLR
23:29 25.7 °C 20.9 °C 1009.5 hPa NNW 13.7 km/h 20.4 km/h 75% 0.0 mm CLR
23:34 25.6 °C 20.8 °C 1009.5 hPa NE 13.7 km/h 18.5 km/h 75% 0.0 mm CLR
23:39 25.4 °C 20.8 °C 1009.5 hPa NE 13.7 km/h 20.4 km/h 76% 0.0 mm CLR
23:44 25.3 °C 21.0 °C 1009.5 hPa NNE 13.7 km/h 18.5 km/h 77% 0.0 mm CLR
23:49 25.2 °C 20.9 °C 1009.7 hPa NE 13.0 km/h 16.7 km/h 77% 0.0 mm CLR
23:54 25.2 °C 20.9 °C 1009.7 hPa NNE 13.0 km/h 14.8 km/h 77% 0.0 mm CLR
23:59 25.2 °C 20.9 °C 1009.7 hPa NNE 11.1 km/h 14.8 km/h 77% 0.0 mm CLR
Murcia-Puente Tocinos, España
Compliments of Weather Underground - 3.25 mb

La estación de MeteoMurcia.com, publica sus datos en los siguientes proyectos:

Weather Underground PWS IMURCIAP2 Meteoclimatic www.awekas.at

W3Counter
Web Analytics